RH
79 78 74 77 78 74 76 72 69 70 65 62 65 60 62 66 71 72 58 54 56 53 57 61 64 64 63 59 77 82 83 80
72 71 70 70 74 71 68 66 63 61 63 64 67 66 57 60 57 56 54 54 56 58 62 67 68 68 66 72 85 87 84 84
70 70 72 70 67 67 65 64 65 67 69 67 66 59 56 56 57 56 56 58 60 63 68 70 71 69 67 75 83 84 88 91
71 71 67 67 66 66 66 66 70 70 62 54 44 38 35 38 46 54 54 60 65 67 70 75 77 71 75 77 79 86 89 88
69 67 67 65 66 67 67 70 68 63 60 56 49 46 46 53 52 48 48 47 47 47 56 64 56 56 58 67 77 81 83 74
68 68 64 66 69 65 68 69 66 66 65 56 53 51 49 50 49 48 46 42 40 42 45 52 54 55 65 68 75 78 78 77
68 64 64 70 68 65 69 68 66 67 62 51 50 48 45 45 43 40 38 38 38 42 47 50 54 55 56 54 61 74 77 81
64 63 66 69 68 69 71 69 71 66 54 50 51 51 43 42 39 40 41 44 46 53 54 56 59 58 58 57 56 60 70 86
62 65 69 68 69 71 84 72 70 61 52 52 53 45 35 38 38 43 46 49 52 56 57 58 58 57 58 58 60 60 73 84
65 69 69 69 72 77 77 76 70 56 51 53 47 32 38 42 43 48 55 50 50 54 57 59 60 56 59 62 62 68 75 70
69 68 69 72 78 83 83 76 65 54 51 47 33 36 43 47 52 56 60 51 54 56 58 59 58 56 61 65 67 74 67 27
67 69 71 77 85 89 82 67 59 51 47 35 38 40 46 48 52 56 56 52 52 50 60 58 56 60 66 69 73 49 29 58
68 71 76 87 97 86 68 61 53 47 40 37 40 44 48 46 42 48 44 50 45 44 54 53 56 67 69 56 33 35 74 95
72 76 82 89 88 79 65 56 49 41 35 40 42 46 47 45 30 21 29 19 15 33 38 41 52 46 28 40 72 80 92 99
75 76 85 82 81 75 57 50 43 37 38 41 38 47 49 42 30 13 8 8 9 12 20 26 23 24 35 94 95 95 93 98
74 80 87 81 69 58 50 45 38 40 36 35 45 48 46 44 32 17 13 11 9 13 17 20 22 21 48 100 96 97 93 96
77 86 82 72 57 52 46 40 43 35 29 41 46 47 47 48 36 24 21 18 13 16 20 23 22 22 50 100 100 99 89 94
82 79 71 63 56 48 46 46 35 23 35 41 43 43 49 48 38 32 30 25 18 21 21 22 21 22 65 100 100 89 88 95
76 74 62 58 55 53 49 35 23 30 42 44 41 44 47 43 39 38 39 35 23 23 21 22 20 30 65 100 100 88 87 92
Wind_Speed
25 24 18 12 6 4 3 4 5 6 8 12 13 15 15 14 11 11 15 17 18 22 24 25 26 28 29 25 22 23 25 27
21 18 14 10 6 4 5 6 7 9 13 15 16 17 15 13 12 16 18 17 16 19 21 23 26 29 28 22 21 23 25 27
20 15 9 6 6 7 8 9 10 14 16 18 18 16 14 14 14 17 19 19 17 17 20 24 26 27 25 23 24 26 24 25
18 13 7 6 7 8 9 10 14 16 17 16 14 13 14 15 18 20 21 19 19 20 22 23 24 24 24 23 23 21 22 23
17 10 7 8 10 9 9 12 15 17 19 21 21 21 20 19 20 19 18 19 20 21 21 22 23 23 22 20 20 20 21 21
13 11 8 9 11 9 11 13 14 18 21 22 21 21 19 18 19 20 21 22 22 21 21 21 21 22 20 21 21 21 19 19
12 8 7 11 11 10 11 15 16 19 21 20 21 22 21 21 22 23 24 24 23 21 21 20 20 22 21 24 22 21 21 22
9 6 7 8 10 12 12 14 16 18 18 20 22 24 22 21 22 23 23 24 24 21 21 22 22 23 23 24 24 22 22 23
7 6 5 9 11 10 12 11 15 17 18 21 22 24 21 21 22 21 22 23 23 21 21 22 21 23 23 25 26 26 24 26
10 6 4 7 7 7 8 12 17 17 18 19 22 22 20 23 22 21 23 23 22 22 22 23 22 24 24 26 28 28 27 34
12 5 3 5 5 8 8 13 18 17 16 20 22 20 20 23 22 23 24 23 22 23 23 23 23 25 24 26 29 29 35 36
11 6 3 4 6 6 9 13 17 14 16 20 21 21 21 23 24 23 24 24 25 26 25 27 28 25 24 28 30 35 35 32
11 6 4 4 6 5 8 13 17 16 19 19 21 20 22 24 25 26 26 26 27 27 27 28 27 25 27 31 33 33 33 31
12 8 3 5 4 7 7 12 15 17 18 20 21 20 22 27 28 27 26 28 27 26 27 28 28 29 30 32 33 33 33 27
12 6 3 5 4 6 7 11 14 17 18 18 20 19 22 27 31 30 28 27 27 26 26 27 30 30 27 30 32 35 31 24
10 5 4 4 5 4 6 10 13 17 17 18 19 18 22 27 31 30 28 29 28 26 27 28 29 30 27 28 33 33 28 24
9 4 6 4 4 4 6 9 15 16 15 16 17 19 23 29 31 30 30 31 30 26 28 29 30 31 28 30 32 32 26 23
8 8 6 3 4 4 7 12 14 14 12 16 18 20 23 28 30 30 30 33 31 27 29 30 31 33 32 33 33 30 26 23
11 9 5 5 5 8 10 11 11 13 14 16 19 21 23 26 28 30 31 34 30 29 30 32 32 35 33 35 34 30 27 24
Wind_Direction
140 142 140 143 132 101 16 340 335 331 331 327 328 325 325 326 322 315 323 330 332 333 339 343 345 346 345 344 341 341 341 340
131 130 130 129 107 39 13 355 345 338 339 340 344 346 341 333 331 331 334 335 331 334 335 337 338 340 341 339 336 334 338 339
130 129 128 110 56 16 359 358 360 354 351 353 346 336 331 334 338 337 338 335 333 334 330 329 332 333 335 335 334 334 335 336
140 136 122 59 19 6 10 9 1 357 358 355 356 349 339 333 338 337 339 337 336 330 326 327 331 334 332 332 332 334 334 336
137 127 99 40 32 30 15 5 1 360 3 1 359 356 352 348 342 342 340 337 334 331 328 328 332 333 334 337 337 334 332 335
134 115 67 51 37 21 9 1 2 9 6 1 358 356 354 351 347 345 343 342 342 339 339 342 342 343 341 337 331 329 330 328
134 107 75 47 25 7 355 0 7 8 5 3 3 1 354 349 347 345 344 344 345 347 346 347 347 349 346 346 337 328 324 323
138 102 69 31 15 1 1 8 6 5 4 2 2 360 354 351 349 347 348 350 351 352 349 348 344 345 341 344 342 330 324 321
143 123 68 23 5 358 2 9 7 1 360 0 358 355 357 357 355 355 354 350 348 343 340 339 338 339 335 337 335 337 328 317
163 137 56 20 4 3 15 11 5 360 359 357 355 357 359 359 358 353 350 347 343 339 335 333 332 333 327 327 329 328 319 316
166 143 83 31 10 5 13 11 3 360 359 356 357 359 359 357 354 350 347 346 341 335 331 331 328 329 324 322 325 319 317 319
169 158 105 45 18 23 19 6 2 4 360 358 359 359 356 354 351 348 341 339 337 334 329 329 330 330 326 325 321 322 326 328
166 155 107 58 9 33 8 8 5 4 357 356 358 0 359 359 354 346 343 338 336 334 331 331 334 332 330 326 328 334 337 334
171 152 114 22 82 14 7 4 5 360 355 354 359 4 3 359 356 350 347 341 341 339 337 337 337 336 333 335 340 340 339 336
169 151 76 100 34 12 11 3 359 358 354 360 4 8 5 2 1 358 356 356 351 348 346 342 340 339 338 339 344 340 340 339
164 146 106 82 28 38 5 356 357 356 358 7 11 9 3 2 3 3 2 2 357 353 350 349 347 349 349 348 344 341 341 339
159 139 132 88 52 17 355 358 356 355 1 16 10 9 3 2 4 6 5 4 1 358 357 356 356 357 355 353 348 343 344 344
144 132 128 76 31 11 358 360 353 358 20 16 11 8 4 1 3 5 6 5 2 3 2 2 3 3 2 352 350 349 349 349
136 131 107 61 45 13 3 356 14 24 21 15 9 8 4 2 3 4 4 5 7 6 8 8 8 8 5 353 352 353 356 354